Data supplied by UK-AIR on 24/3/2020
All Data GMT hour ending 
Status: R =Ratified P=Provisional,P*=As supplied
,,High Muffles,,,,,,,,,,,,,,,,,,,,,,,
Date,time,"Nitric oxide",status,unit,"Nitrogen dioxide",status,unit,"Nitrogen oxides as nitrogen dioxide",status,unit,"Ozone",status,unit
 
01-01-2019,01:00,0.40639,R,ugm-3,1.63677,R,ugm-3,2.25989,R,ugm-3,65.52548,R,ugm-3
01-01-2019,02:00,0.18062,R,ugm-3,1.48859,R,ugm-3,1.76554,R,ugm-3,62.99760,R,ugm-3
01-01-2019,03:00,0.33866,R,ugm-3,1.33455,R,ugm-3,1.85381,R,ugm-3,65.95789,R,ugm-3
01-01-2019,04:00,0.27093,R,ugm-3,1.06764,R,ugm-3,1.48305,R,ugm-3,69.89939,R,ugm-3
01-01-2019,05:00,0.30479,R,ugm-3,1.12165,R,ugm-3,1.58898,R,ugm-3,69.50025,R,ugm-3
01-01-2019,06:00,0.37252,R,ugm-3,0.91186,R,ugm-3,1.48305,R,ugm-3,67.85380,R,ugm-3
01-01-2019,07:00,0.33866,R,ugm-3,0.85785,R,ugm-3,1.37712,R,ugm-3,70.99703,R,ugm-3
01-01-2019,08:00,0.20319,R,ugm-3,0.21810,R,ugm-3,0.52966,R,ugm-3,81.57424,R,ugm-3
01-01-2019,09:00,0.44025,R,ugm-3,0.43724,R,ugm-3,1.11229,R,ugm-3,80.92564,R,ugm-3
01-01-2019,10:00,0.57572,R,ugm-3,1.02403,R,ugm-3,1.90678,R,ugm-3,78.63058,R,ugm-3
01-01-2019,11:00,0.50798,R,ugm-3,1.86941,R,ugm-3,2.64831,R,ugm-3,73.94069,R,ugm-3
01-01-2019,12:00,0.71118,R,ugm-3,2.40531,R,ugm-3,3.49576,R,ugm-3,72.84305,R,ugm-3
01-01-2019,13:00,0.77891,R,ugm-3,3.46671,R,ugm-3,4.66102,R,ugm-3,71.89509,R,ugm-3
01-01-2019,14:00,0.60958,R,ugm-3,2.66702,R,ugm-3,3.60170,R,ugm-3,70.59789,R,ugm-3
01-01-2019,15:00,0.44025,R,ugm-3,1.28470,R,ugm-3,1.95975,R,ugm-3,76.58499,R,ugm-3
01-01-2019,16:00,0.30479,R,ugm-3,0.64495,R,ugm-3,1.11229,R,ugm-3,79.07961,R,ugm-3
01-01-2019,17:00,0.33866,R,ugm-3,0.43412,R,ugm-3,0.95339,R,ugm-3,80.72607,R,ugm-3
01-01-2019,18:00,0.10160,R,ugm-3,0.58575,R,ugm-3,0.74153,R,ugm-3,80.92564,R,ugm-3
01-01-2019,19:00,0.27093,R,ugm-3,0.48501,R,ugm-3,0.90042,R,ugm-3,82.07316,R,ugm-3
01-01-2019,20:00,0.23706,R,ugm-3,0.43101,R,ugm-3,0.79449,R,ugm-3,83.96908,R,ugm-3
01-01-2019,21:00,0.13546,R,ugm-3,0.26899,R,ugm-3,0.47669,R,ugm-3,85.46585,R,ugm-3
01-01-2019,22:00,0.16933,R,ugm-3,0.32299,R,ugm-3,0.58263,R,ugm-3,85.81510,R,ugm-3
01-01-2019,23:00,0.27093,R,ugm-3,0.22018,R,ugm-3,0.63559,R,ugm-3,86.61338,R,ugm-3
01-01-2019,24:00,0.10160,R,ugm-3,0.16202,R,ugm-3,0.31780,R,ugm-3,85.96478,R,ugm-3
02-01-2019,01:00,0.27148,R,ugm-3,0.14980,R,ugm-3,0.56606,R,ugm-3,86.67990,R,ugm-3
02-01-2019,02:00,0.13574,R,ugm-3,0.21641,R,ugm-3,0.42454,R,ugm-3,86.87947,R,ugm-3
02-01-2019,03:00,0.18099,R,ugm-3,0.14704,R,ugm-3,0.42454,R,ugm-3,87.31188,R,ugm-3
02-01-2019,04:00,0.16968,R,ugm-3,0.16438,R,ugm-3,0.42454,R,ugm-3,87.51145,R,ugm-3
02-01-2019,05:00,0.20361,R,ugm-3,0.21848,R,ugm-3,0.53068,R,ugm-3,82.27273,R,ugm-3
02-01-2019,06:00,0.16968,R,ugm-3,0.11131,R,ugm-3,0.37148,R,ugm-3,81.97338,R,ugm-3
02-01-2019,07:00,0.16968,R,ugm-3,0.16438,R,ugm-3,0.42454,R,ugm-3,79.37897,R,ugm-3
02-01-2019,08:00,0.16968,R,ugm-3,0.05824,R,ugm-3,0.31841,R,ugm-3,77.83230,R,ugm-3
02-01-2019,09:00,0.23755,R,ugm-3,0.27259,R,ugm-3,0.63682,R,ugm-3,81.67402,R,ugm-3
02-01-2019,10:00,0.30542,R,ugm-3,1.91976,R,ugm-3,2.38806,R,ugm-3,70.09896,R,ugm-3
02-01-2019,11:00,0.13574,R,ugm-3,2.02072,R,ugm-3,2.22885,R,ugm-3,76.48520,R,ugm-3
02-01-2019,12:00,0.10181,R,ugm-3,1.11753,R,ugm-3,1.27363,R,ugm-3,77.58284,R,ugm-3
02-01-2019,13:00,0.47509,R,ugm-3,6.80718,R,ugm-3,7.53564,R,ugm-3,69.45036,R,ugm-3
02-01-2019,14:00,0.50902,R,ugm-3,7.49810,R,ugm-3,8.27860,R,ugm-3,69.60004,R,ugm-3
02-01-2019,15:00,0.27148,R,ugm-3,3.66997,R,ugm-3,4.08623,R,ugm-3,70.64778,R,ugm-3
02-01-2019,16:00,0.16968,R,ugm-3,2.18096,R,ugm-3,2.44113,R,ugm-3,68.85165,R,ugm-3
02-01-2019,17:00,0.13574,R,ugm-3,1.59618,R,ugm-3,1.80431,R,ugm-3,69.94929,R,ugm-3
02-01-2019,18:00,0.13574,R,ugm-3,2.12686,R,ugm-3,2.33499,R,ugm-3,68.25294,R,ugm-3
02-01-2019,19:00,0.16968,R,ugm-3,11.09637,R,ugm-3,11.35653,R,ugm-3,49.04433,R,ugm-3
02-01-2019,20:00,0.16968,R,ugm-3,12.42307,R,ugm-3,12.68323,R,ugm-3,56.42842,R,ugm-3
02-01-2019,21:00,0.06787,R,ugm-3,12.73837,R,ugm-3,12.84243,R,ugm-3,55.97939,R,ugm-3
02-01-2019,22:00,0.20361,R,ugm-3,4.67619,R,ugm-3,4.98838,R,ugm-3,69.55015,R,ugm-3
02-01-2019,23:00,0.13574,R,ugm-3,3.40049,R,ugm-3,3.60862,R,ugm-3,67.95359,R,ugm-3
02-01-2019,24:00,0.16968,R,ugm-3,2.23403,R,ugm-3,2.49419,R,ugm-3,69.10111,R,ugm-3
03-01-2019,01:00,0.13602,R,ugm-3,3.69056,R,ugm-3,3.89911,R,ugm-3,67.05552,R,ugm-3
03-01-2019,02:00,0.18136,R,ugm-3,3.62104,R,ugm-3,3.89911,R,ugm-3,62.53193,R,ugm-3
03-01-2019,03:00,0.20403,R,ugm-3,1.92029,R,ugm-3,2.23313,R,ugm-3,68.15316,R,ugm-3
03-01-2019,04:00,0.27204,R,ugm-3,0.96530,R,ugm-3,1.38241,R,ugm-3,71.69552,R,ugm-3
03-01-2019,05:00,0.30604,R,ugm-3,0.64731,R,ugm-3,1.11656,R,ugm-3,75.23789,R,ugm-3
03-01-2019,06:00,0.27204,R,ugm-3,0.48677,R,ugm-3,0.90389,R,ugm-3,76.88434,R,ugm-3
03-01-2019,07:00,0.30604,R,ugm-3,0.27512,R,ugm-3,0.74438,R,ugm-3,77.28348,R,ugm-3
03-01-2019,08:00,0.27204,R,ugm-3,0.59311,R,ugm-3,1.01023,R,ugm-3,75.88649,R,ugm-3
03-01-2019,09:00,0.27204,R,ugm-3,0.69945,R,ugm-3,1.11656,R,ugm-3,72.74327,R,ugm-3
03-01-2019,10:00,0.27204,R,ugm-3,0.69945,R,ugm-3,1.11656,R,ugm-3,72.79316,R,ugm-3
03-01-2019,11:00,0.30604,R,ugm-3,0.70048,R,ugm-3,1.16974,R,ugm-3,72.59359,R,ugm-3
03-01-2019,12:00,0.40805,R,ugm-3,1.60746,R,ugm-3,2.23313,R,ugm-3,74.98843,R,ugm-3
03-01-2019,13:00,0.30604,R,ugm-3,3.19946,R,ugm-3,3.66871,R,ugm-3,75.48735,R,ugm-3
03-01-2019,14:00,0.34004,R,ugm-3,3.51951,R,ugm-3,4.04090,R,ugm-3,75.18800,R,ugm-3
03-01-2019,15:00,0.47606,R,ugm-3,7.29868,R,ugm-3,8.02863,R,ugm-3,68.80176,R,ugm-3
03-01-2019,16:00,0.27204,R,ugm-3,5.75057,R,ugm-3,6.16769,R,ugm-3,55.38068,R,ugm-3
03-01-2019,17:00,0.20403,R,ugm-3,5.32316,R,ugm-3,5.63599,R,ugm-3,47.24820,R,ugm-3
03-01-2019,18:00,0.27204,R,ugm-3,5.48473,R,ugm-3,5.90184,R,ugm-3,54.88175,R,ugm-3
03-01-2019,19:00,0.13602,R,ugm-3,4.25770,R,ugm-3,4.46626,R,ugm-3,51.33938,R,ugm-3
03-01-2019,20:00,0.23803,R,ugm-3,4.36713,R,ugm-3,4.73210,R,ugm-3,48.19616,R,ugm-3
03-01-2019,21:00,0.23803,R,ugm-3,3.99494,R,ugm-3,4.35992,R,ugm-3,42.90755,R,ugm-3
03-01-2019,22:00,0.34004,R,ugm-3,4.15754,R,ugm-3,4.67894,R,ugm-3,43.45637,R,ugm-3
03-01-2019,23:00,0.20403,R,ugm-3,5.58900,R,ugm-3,5.90184,R,ugm-3,46.79917,R,ugm-3
03-01-2019,24:00,0.23803,R,ugm-3,3.94177,R,ugm-3,4.30675,R,ugm-3,51.63874,R,ugm-3
04-01-2019,01:00,0.09086,R,ugm-3,2.20463,R,ugm-3,2.34395,R,ugm-3,62.99760,R,ugm-3
04-01-2019,02:00,0.22716,R,ugm-3,1.85359,R,ugm-3,2.20189,R,ugm-3,61.66713,R,ugm-3
04-01-2019,03:00,0.23852,R,ugm-3,1.71187,R,ugm-3,2.07759,R,ugm-3,54.98154,R,ugm-3
04-01-2019,04:00,0.23852,R,ugm-3,1.71187,R,ugm-3,2.07759,R,ugm-3,54.08347,R,ugm-3
04-01-2019,05:00,0.17037,R,ugm-3,1.86963,R,ugm-3,2.13086,R,ugm-3,53.33508,R,ugm-3
04-01-2019,06:00,0.23852,R,ugm-3,2.19132,R,ugm-3,2.55703,R,ugm-3,50.74067,R,ugm-3
04-01-2019,07:00,0.17037,R,ugm-3,2.13599,R,ugm-3,2.39722,R,ugm-3,45.70153,R,ugm-3
04-01-2019,08:00,0.27259,R,ugm-3,2.56524,R,ugm-3,2.98321,R,ugm-3,49.64304,R,ugm-3
04-01-2019,09:00,0.27259,R,ugm-3,3.41759,R,ugm-3,3.83555,R,ugm-3,44.55400,R,ugm-3
04-01-2019,10:00,0.27259,R,ugm-3,4.11012,R,ugm-3,4.52808,R,ugm-3,44.45422,R,ugm-3
04-01-2019,11:00,0.61333,R,ugm-3,4.44001,R,ugm-3,5.38043,R,ugm-3,51.23960,R,ugm-3
04-01-2019,12:00,0.40888,R,ugm-3,3.90114,R,ugm-3,4.52808,R,ugm-3,63.91229,R,ugm-3
04-01-2019,13:00,0.37481,R,ugm-3,3.68702,R,ugm-3,4.26172,R,ugm-3,66.05767,R,ugm-3
04-01-2019,14:00,0.37481,R,ugm-3,7.46930,R,ugm-3,8.04400,R,ugm-3,60.36993,R,ugm-3
04-01-2019,15:00,0.37481,R,ugm-3,8.42819,R,ugm-3,9.00289,R,ugm-3,57.57595,R,ugm-3
04-01-2019,16:00,0.27259,R,ugm-3,9.96999,R,ugm-3,10.38795,R,ugm-3,54.13336,R,ugm-3
04-01-2019,17:00,0.20444,R,ugm-3,13.69694,R,ugm-3,14.01041,R,ugm-3,47.44777,R,ugm-3
04-01-2019,18:00,0.37481,R,ugm-3,14.50114,R,ugm-3,15.07584,R,ugm-3,46.84906,R,ugm-3
04-01-2019,19:00,0.23852,R,ugm-3,7.62501,R,ugm-3,7.99073,R,ugm-3,60.02068,R,ugm-3
04-01-2019,20:00,0.23852,R,ugm-3,7.35865,R,ugm-3,7.72437,R,ugm-3,59.87100,R,ugm-3
04-01-2019,21:00,0.20444,R,ugm-3,4.58751,R,ugm-3,4.90098,R,ugm-3,64.41122,R,ugm-3
04-01-2019,22:00,0.17037,R,ugm-3,4.42667,R,ugm-3,4.68790,R,ugm-3,66.00778,R,ugm-3
04-01-2019,23:00,0.23852,R,ugm-3,2.83057,R,ugm-3,3.19629,R,ugm-3,67.85380,R,ugm-3
04-01-2019,24:00,0.23852,R,ugm-3,2.56422,R,ugm-3,2.92994,R,ugm-3,68.95144,R,ugm-3
05-01-2019,01:00,0.22762,R,ugm-3,3.42270,R,ugm-3,3.77172,R,ugm-3,69.18427,R,ugm-3
05-01-2019,02:00,0.27314,R,ugm-3,3.77989,R,ugm-3,4.19870,R,ugm-3,66.39029,R,ugm-3
05-01-2019,03:00,0.23900,R,ugm-3,4.33039,R,ugm-3,4.69685,R,ugm-3,64.86025,R,ugm-3
05-01-2019,04:00,0.30729,R,ugm-3,4.11894,R,ugm-3,4.59011,R,ugm-3,64.01208,R,ugm-3
05-01-2019,05:00,0.27314,R,ugm-3,3.95780,R,ugm-3,4.37662,R,ugm-3,63.96219,R,ugm-3
05-01-2019,06:00,0.23900,R,ugm-3,4.17027,R,ugm-3,4.53674,R,ugm-3,63.51315,R,ugm-3
05-01-2019,07:00,0.20486,R,ugm-3,2.83492,R,ugm-3,3.14903,R,ugm-3,65.45896,R,ugm-3
05-01-2019,08:00,0.10243,R,ugm-3,2.93860,R,ugm-3,3.09566,R,ugm-3,65.50885,R,ugm-3
05-01-2019,09:00,0.13657,R,ugm-3,2.88625,R,ugm-3,3.09566,R,ugm-3,67.10541,R,ugm-3
05-01-2019,10:00,0.13657,R,ugm-3,3.20649,R,ugm-3,3.41589,R,ugm-3,65.20950,R,ugm-3
05-01-2019,11:00,0.23900,R,ugm-3,4.22365,R,ugm-3,4.59011,R,ugm-3,63.36348,R,ugm-3
05-01-2019,12:00,0.27314,R,ugm-3,4.33141,R,ugm-3,4.75023,R,ugm-3,65.00993,R,ugm-3
05-01-2019,13:00,0.34143,R,ugm-3,5.40092,R,ugm-3,5.92444,R,ugm-3,64.41122,R,ugm-3
05-01-2019,14:00,0.34143,R,ugm-3,5.77454,R,ugm-3,6.29805,R,ugm-3,64.16176,R,ugm-3
05-01-2019,15:00,0.30729,R,ugm-3,7.37472,R,ugm-3,7.84588,R,ugm-3,61.66713,R,ugm-3
05-01-2019,16:00,0.23900,R,ugm-3,5.34449,R,ugm-3,5.71095,R,ugm-3,67.45466,R,ugm-3
05-01-2019,17:00,0.23900,R,ugm-3,5.61135,R,ugm-3,5.97782,R,ugm-3,62.46541,R,ugm-3
05-01-2019,18:00,0.20486,R,ugm-3,5.98394,R,ugm-3,6.29805,R,ugm-3,56.27874,R,ugm-3
05-01-2019,19:00,0.17072,R,ugm-3,5.98292,R,ugm-3,6.24468,R,ugm-3,51.93809,R,ugm-3
05-01-2019,20:00,0.17072,R,ugm-3,6.08967,R,ugm-3,6.35143,R,ugm-3,47.09852,R,ugm-3
05-01-2019,21:00,0.30729,R,ugm-3,6.52074,R,ugm-3,6.99191,R,ugm-3,46.69938,R,ugm-3
05-01-2019,22:00,0.34143,R,ugm-3,6.14815,R,ugm-3,6.67167,R,ugm-3,48.34583,R,ugm-3
05-01-2019,23:00,0.30729,R,ugm-3,4.54593,R,ugm-3,5.01709,R,ugm-3,52.38713,R,ugm-3
05-01-2019,24:00,0.34143,R,ugm-3,3.15924,R,ugm-3,3.68276,R,ugm-3,61.71702,R,ugm-3
06-01-2019,01:00,0.45616,R,ugm-3,2.58037,R,ugm-3,3.27981,R,ugm-3,70.11559,R,ugm-3
06-01-2019,02:00,0.27370,R,ugm-3,2.21844,R,ugm-3,2.63811,R,ugm-3,70.24864,R,ugm-3
06-01-2019,03:00,0.23949,R,ugm-3,1.93223,R,ugm-3,2.29943,R,ugm-3,68.25294,R,ugm-3
06-01-2019,04:00,0.37634,R,ugm-3,1.88282,R,ugm-3,2.45986,R,ugm-3,67.50455,R,ugm-3
06-01-2019,05:00,0.23949,R,ugm-3,1.82528,R,ugm-3,2.19248,R,ugm-3,67.25509,R,ugm-3
06-01-2019,06:00,0.27370,R,ugm-3,1.98672,R,ugm-3,2.40638,R,ugm-3,66.80606,R,ugm-3
06-01-2019,07:00,0.27370,R,ugm-3,1.93324,R,ugm-3,2.35291,R,ugm-3,67.75402,R,ugm-3
06-01-2019,08:00,0.27370,R,ugm-3,1.71934,R,ugm-3,2.13901,R,ugm-3,68.30283,R,ugm-3
06-01-2019,09:00,0.30791,R,ugm-3,1.50646,R,ugm-3,1.97858,R,ugm-3,66.90584,R,ugm-3
06-01-2019,10:00,0.27370,R,ugm-3,1.71934,R,ugm-3,2.13901,R,ugm-3,66.05767,R,ugm-3
06-01-2019,11:00,0.23949,R,ugm-3,1.45095,R,ugm-3,1.81815,R,ugm-3,71.34628,R,ugm-3
06-01-2019,12:00,0.30791,R,ugm-3,1.98773,R,ugm-3,2.45986,R,ugm-3,65.80821,R,ugm-3
06-01-2019,13:00,0.44476,R,ugm-3,1.83138,R,ugm-3,2.51333,R,ugm-3,71.09681,R,ugm-3
06-01-2019,14:00,0.47897,R,ugm-3,5.78955,R,ugm-3,6.52397,R,ugm-3,67.50455,R,ugm-3
06-01-2019,15:00,0.47897,R,ugm-3,5.57566,R,ugm-3,6.31007,R,ugm-3,61.46756,R,ugm-3
06-01-2019,16:00,0.37634,R,ugm-3,6.74906,R,ugm-3,7.32610,R,ugm-3,57.92519,R,ugm-3
06-01-2019,17:00,0.30791,R,ugm-3,6.58660,R,ugm-3,7.05872,R,ugm-3,47.74712,R,ugm-3
06-01-2019,18:00,0.27370,R,ugm-3,7.86898,R,ugm-3,8.28865,R,ugm-3,39.86411,R,ugm-3
06-01-2019,19:00,0.47897,R,ugm-3,6.27083,R,ugm-3,7.00525,R,ugm-3,44.70368,R,ugm-3
06-01-2019,20:00,0.44476,R,ugm-3,3.91691,R,ugm-3,4.59886,R,ugm-3,52.43702,R,ugm-3
06-01-2019,21:00,0.37634,R,ugm-3,4.77048,R,ugm-3,5.34751,R,ugm-3,48.74497,R,ugm-3
06-01-2019,22:00,0.27370,R,ugm-3,5.35565,R,ugm-3,5.77532,R,ugm-3,44.60390,R,ugm-3
06-01-2019,23:00,0.54740,R,ugm-3,6.91457,R,ugm-3,7.75390,R,ugm-3,37.16991,R,ugm-3
06-01-2019,24:00,1.33428,R,ugm-3,6.77753,R,ugm-3,8.82340,R,ugm-3,42.20906,R,ugm-3
07-01-2019,01:00,1.14272,R,ugm-3,3.96273,R,ugm-3,5.71488,R,ugm-3,57.21007,R,ugm-3
07-01-2019,02:00,0.27425,R,ugm-3,3.07985,R,ugm-3,3.50036,R,ugm-3,57.32648,R,ugm-3
07-01-2019,03:00,0.20569,R,ugm-3,3.22069,R,ugm-3,3.53608,R,ugm-3,53.38498,R,ugm-3
07-01-2019,04:00,0.61707,R,ugm-3,2.91138,R,ugm-3,3.85754,R,ugm-3,56.62799,R,ugm-3
07-01-2019,05:00,0.68563,R,ugm-3,4.46714,R,ugm-3,5.51843,R,ugm-3,59.57165,R,ugm-3
07-01-2019,06:00,0.41138,R,ugm-3,6.11992,R,ugm-3,6.75070,R,ugm-3,55.18111,R,ugm-3
07-01-2019,07:00,0.54851,R,ugm-3,8.85640,R,ugm-3,9.69743,R,ugm-3,48.84476,R,ugm-3
07-01-2019,08:00,0.44566,R,ugm-3,7.62109,R,ugm-3,8.30443,R,ugm-3,48.94454,R,ugm-3
07-01-2019,09:00,0.51422,R,ugm-3,5.48004,R,ugm-3,6.26850,R,ugm-3,53.88390,R,ugm-3
07-01-2019,10:00,0.58279,R,ugm-3,4.19622,R,ugm-3,5.08981,R,ugm-3,59.42197,R,ugm-3
07-01-2019,11:00,0.54851,R,ugm-3,3.44513,R,ugm-3,4.28616,R,ugm-3,61.51745,R,ugm-3
07-01-2019,12:00,0.47994,R,ugm-3,2.85375,R,ugm-3,3.58966,R,ugm-3,64.16176,R,ugm-3
07-01-2019,13:00,0.44566,R,ugm-3,2.85274,R,ugm-3,3.53608,R,ugm-3,64.91014,R,ugm-3
07-01-2019,14:00,0.41138,R,ugm-3,3.11962,R,ugm-3,3.75039,R,ugm-3,65.35918,R,ugm-3
07-01-2019,15:00,0.58279,R,ugm-3,5.05345,R,ugm-3,5.94704,R,ugm-3,66.85595,R,ugm-3
07-01-2019,16:00,0.34282,R,ugm-3,3.59978,R,ugm-3,4.12543,R,ugm-3,72.94284,R,ugm-3
07-01-2019,17:00,0.30854,R,ugm-3,1.99146,R,ugm-3,2.46454,R,ugm-3,83.96908,R,ugm-3
07-01-2019,18:00,0.30854,R,ugm-3,1.99146,R,ugm-3,2.46454,R,ugm-3,81.47445,R,ugm-3
07-01-2019,19:00,0.23997,R,ugm-3,1.77513,R,ugm-3,2.14308,R,ugm-3,79.27918,R,ugm-3
07-01-2019,20:00,0.37710,R,ugm-3,1.56487,R,ugm-3,2.14308,R,ugm-3,79.72822,R,ugm-3
07-01-2019,21:00,0.13713,R,ugm-3,1.34347,R,ugm-3,1.55373,R,ugm-3,79.97768,R,ugm-3
07-01-2019,22:00,0.20569,R,ugm-3,1.45265,R,ugm-3,1.76804,R,ugm-3,79.47875,R,ugm-3
07-01-2019,23:00,0.23997,R,ugm-3,1.29293,R,ugm-3,1.66089,R,ugm-3,79.42886,R,ugm-3
07-01-2019,24:00,0.17141,R,ugm-3,1.50522,R,ugm-3,1.76804,R,ugm-3,79.02972,R,ugm-3
08-01-2019,01:00,0.45801,R,ugm-3,1.23016,R,ugm-3,1.93244,R,ugm-3,78.56406,R,ugm-3
08-01-2019,02:00,0.32061,R,ugm-3,0.93984,R,ugm-3,1.43143,R,ugm-3,78.03187,R,ugm-3
08-01-2019,03:00,0.17175,R,ugm-3,1.07862,R,ugm-3,1.34197,R,ugm-3,76.78456,R,ugm-3
08-01-2019,04:00,0.17175,R,ugm-3,0.91758,R,ugm-3,1.18093,R,ugm-3,76.98413,R,ugm-3
08-01-2019,05:00,0.20611,R,ugm-3,0.97227,R,ugm-3,1.28829,R,ugm-3,76.23574,R,ugm-3
08-01-2019,06:00,0.24046,R,ugm-3,1.34903,R,ugm-3,1.71772,R,ugm-3,75.68692,R,ugm-3
08-01-2019,07:00,0.20611,R,ugm-3,1.45537,R,ugm-3,1.77140,R,ugm-3,74.63918,R,ugm-3
08-01-2019,08:00,0.27481,R,ugm-3,3.06776,R,ugm-3,3.48912,R,ugm-3,71.69552,R,ugm-3
08-01-2019,09:00,0.27481,R,ugm-3,4.03397,R,ugm-3,4.45534,R,ugm-3,70.24864,R,ugm-3
08-01-2019,10:00,0.48091,R,ugm-3,5.11360,R,ugm-3,5.85099,R,ugm-3,68.50240,R,ugm-3
08-01-2019,11:00,0.79007,R,ugm-3,6.35728,R,ugm-3,7.56871,R,ugm-3,68.75187,R,ugm-3
08-01-2019,12:00,0.89313,R,ugm-3,5.93087,R,ugm-3,7.30031,R,ugm-3,71.79531,R,ugm-3
08-01-2019,13:00,0.75572,R,ugm-3,5.17534,R,ugm-3,6.33410,R,ugm-3,76.48520,R,ugm-3
08-01-2019,14:00,0.61832,R,ugm-3,4.36613,R,ugm-3,5.31420,R,ugm-3,77.58284,R,ugm-3
08-01-2019,15:00,0.30916,R,ugm-3,2.63933,R,ugm-3,3.11337,R,ugm-3,85.71532,R,ugm-3
08-01-2019,16:00,0.34351,R,ugm-3,1.19101,R,ugm-3,1.71772,R,ugm-3,88.16005,R,ugm-3
08-01-2019,17:00,0.20611,R,ugm-3,2.31424,R,ugm-3,2.63026,R,ugm-3,84.31833,R,ugm-3
08-01-2019,18:00,0.10305,R,ugm-3,8.75266,R,ugm-3,8.91068,R,ugm-3,70.79746,R,ugm-3
08-01-2019,19:00,0.17175,R,ugm-3,11.49230,R,ugm-3,11.75565,R,ugm-3,66.60649,R,ugm-3
08-01-2019,20:00,0.10305,R,ugm-3,7.24966,R,ugm-3,7.40767,R,ugm-3,71.64563,R,ugm-3
08-01-2019,21:00,0.13740,R,ugm-3,2.20486,R,ugm-3,2.41555,R,ugm-3,75.78671,R,ugm-3
08-01-2019,22:00,0.13740,R,ugm-3,1.66808,R,ugm-3,1.87876,R,ugm-3,79.37897,R,ugm-3
08-01-2019,23:00,0.20611,R,ugm-3,1.40170,R,ugm-3,1.71772,R,ugm-3,82.37252,R,ugm-3
08-01-2019,24:00,0.24046,R,ugm-3,0.70488,R,ugm-3,1.07358,R,ugm-3,87.66112,R,ugm-3
09-01-2019,01:00,0.22947,R,ugm-3,0.58035,R,ugm-3,0.93220,R,ugm-3,88.20994,R,ugm-3
09-01-2019,02:00,0.13768,R,ugm-3,0.57767,R,ugm-3,0.78878,R,ugm-3,86.21424,R,ugm-3
09-01-2019,03:00,0.27536,R,ugm-3,0.54583,R,ugm-3,0.96805,R,ugm-3,86.06456,R,ugm-3
09-01-2019,04:00,0.24094,R,ugm-3,0.38349,R,ugm-3,0.75293,R,ugm-3,86.21424,R,ugm-3
09-01-2019,05:00,0.10326,R,ugm-3,0.32570,R,ugm-3,0.48403,R,ugm-3,86.51360,R,ugm-3
09-01-2019,06:00,0.24094,R,ugm-3,0.27593,R,ugm-3,0.64537,R,ugm-3,86.46370,R,ugm-3
09-01-2019,07:00,0.20652,R,ugm-3,0.27492,R,ugm-3,0.59159,R,ugm-3,86.21424,R,ugm-3
09-01-2019,08:00,0.17210,R,ugm-3,0.38148,R,ugm-3,0.64537,R,ugm-3,86.81295,R,ugm-3
09-01-2019,09:00,0.10326,R,ugm-3,0.32570,R,ugm-3,0.48403,R,ugm-3,88.45940,R,ugm-3
09-01-2019,10:00,0.20652,R,ugm-3,0.38249,R,ugm-3,0.69915,R,ugm-3,87.06241,R,ugm-3
09-01-2019,11:00,0.17210,R,ugm-3,0.43526,R,ugm-3,0.69915,R,ugm-3,84.21854,R,ugm-3
09-01-2019,12:00,0.06884,R,ugm-3,0.32469,R,ugm-3,0.43025,R,ugm-3,85.36607,R,ugm-3
09-01-2019,13:00,0.24094,R,ugm-3,0.43727,R,ugm-3,0.80671,R,ugm-3,84.71747,R,ugm-3
09-01-2019,14:00,0.37862,R,ugm-3,0.71019,R,ugm-3,1.29074,R,ugm-3,82.92134,R,ugm-3
09-01-2019,15:00,0.20652,R,ugm-3,0.81273,R,ugm-3,1.12939,R,ugm-3,81.87359,R,ugm-3
09-01-2019,16:00,0.34420,R,ugm-3,6.14102,R,ugm-3,6.66879,R,ugm-3,70.99703,R,ugm-3
09-01-2019,17:00,0.24094,R,ugm-3,5.43886,R,ugm-3,5.80830,R,ugm-3,73.64133,R,ugm-3
09-01-2019,18:00,0.20652,R,ugm-3,4.46981,R,ugm-3,4.78647,R,ugm-3,72.69337,R,ugm-3
09-01-2019,19:00,0.06884,R,ugm-3,7.90775,R,ugm-3,8.01331,R,ugm-3,65.80821,R,ugm-3
09-01-2019,20:00,0.20652,R,ugm-3,14.63434,R,ugm-3,14.95100,R,ugm-3,57.02713,R,ugm-3
09-01-2019,21:00,0.27536,R,ugm-3,21.14380,R,ugm-3,21.56601,R,ugm-3,48.04648,R,ugm-3
09-01-2019,22:00,0.17210,R,ugm-3,13.18126,R,ugm-3,13.44515,R,ugm-3,54.38283,R,ugm-3
09-01-2019,23:00,0.17210,R,ugm-3,11.19138,R,ugm-3,11.45527,R,ugm-3,55.58025,R,ugm-3
09-01-2019,24:00,0.03442,R,ugm-3,10.21931,R,ugm-3,10.27209,R,ugm-3,56.47831,R,ugm-3
10-01-2019,01:00,0.13796,R,ugm-3,6.54173,R,ugm-3,6.75326,R,ugm-3,62.99760,R,ugm-3
10-01-2019,02:00,0.13796,R,ugm-3,4.31459,R,ugm-3,4.52612,R,ugm-3,69.71645,R,ugm-3
10-01-2019,03:00,0.24143,R,ugm-3,2.64723,R,ugm-3,3.01741,R,ugm-3,67.30498,R,ugm-3
10-01-2019,04:00,0.27592,R,ugm-3,1.13952,R,ugm-3,1.56259,R,ugm-3,65.85810,R,ugm-3
10-01-2019,05:00,0.34490,R,ugm-3,0.54882,R,ugm-3,1.07765,R,ugm-3,67.85380,R,ugm-3
10-01-2019,06:00,0.17245,R,ugm-3,0.43605,R,ugm-3,0.70047,R,ugm-3,66.95574,R,ugm-3
10-01-2019,07:00,0.31041,R,ugm-3,0.76335,R,ugm-3,1.23929,R,ugm-3,55.92949,R,ugm-3
10-01-2019,08:00,0.13796,R,ugm-3,1.02776,R,ugm-3,1.23929,R,ugm-3,42.80777,R,ugm-3
10-01-2019,09:00,0.17245,R,ugm-3,0.75935,R,ugm-3,1.02377,R,ugm-3,59.62154,R,ugm-3
10-01-2019,10:00,0.34490,R,ugm-3,1.03376,R,ugm-3,1.56259,R,ugm-3,63.51315,R,ugm-3
10-01-2019,11:00,0.34490,R,ugm-3,2.16529,R,ugm-3,2.69412,R,ugm-3,65.30928,R,ugm-3
10-01-2019,12:00,1.17265,R,ugm-3,4.61397,R,ugm-3,6.41200,R,ugm-3,57.47616,R,ugm-3
10-01-2019,13:00,0.34490,R,ugm-3,1.84199,R,ugm-3,2.37083,R,ugm-3,67.60434,R,ugm-3
10-01-2019,14:00,0.37939,R,ugm-3,4.37546,R,ugm-3,4.95718,R,ugm-3,63.26369,R,ugm-3
10-01-2019,15:00,0.58632,R,ugm-3,7.66828,R,ugm-3,8.56730,R,ugm-3,58.27444,R,ugm-3
10-01-2019,16:00,0.31041,R,ugm-3,8.84570,R,ugm-3,9.32165,R,ugm-3,55.33078,R,ugm-3
10-01-2019,17:00,0.37939,R,ugm-3,10.35641,R,ugm-3,10.93813,R,ugm-3,52.63659,R,ugm-3
10-01-2019,18:00,0.31041,R,ugm-3,10.46217,R,ugm-3,10.93813,R,ugm-3,52.58670,R,ugm-3
10-01-2019,19:00,0.31041,R,ugm-3,8.03747,R,ugm-3,8.51342,R,ugm-3,56.02928,R,ugm-3
10-01-2019,20:00,0.31041,R,ugm-3,8.46853,R,ugm-3,8.94448,R,ugm-3,57.52605,R,ugm-3
10-01-2019,21:00,0.20694,R,ugm-3,6.36412,R,ugm-3,6.68142,R,ugm-3,61.31788,R,ugm-3
10-01-2019,22:00,0.31041,R,ugm-3,5.55888,R,ugm-3,6.03483,R,ugm-3,62.26584,R,ugm-3
10-01-2019,23:00,0.24143,R,ugm-3,5.23359,R,ugm-3,5.60377,R,ugm-3,63.96219,R,ugm-3
10-01-2019,24:00,0.31041,R,ugm-3,5.18170,R,ugm-3,5.65765,R,ugm-3,63.56305,R,ugm-3
11-01-2019,01:00,0.41471,R,ugm-3,5.48233,R,ugm-3,6.11821,R,ugm-3,64.72720,R,ugm-3
11-01-2019,02:00,0.27647,R,ugm-3,4.75857,R,ugm-3,5.18248,R,ugm-3,66.92247,R,ugm-3
11-01-2019,03:00,0.34559,R,ugm-3,5.08446,R,ugm-3,5.61436,R,ugm-3,67.25509,R,ugm-3
11-01-2019,04:00,0.31103,R,ugm-3,4.27370,R,ugm-3,4.75061,R,ugm-3,66.10756,R,ugm-3
11-01-2019,05:00,0.34559,R,ugm-3,3.57290,R,ugm-3,4.10280,R,ugm-3,67.55445,R,ugm-3
11-01-2019,06:00,0.48383,R,ugm-3,2.33525,R,ugm-3,3.07710,R,ugm-3,72.34413,R,ugm-3
11-01-2019,07:00,0.38015,R,ugm-3,2.22429,R,ugm-3,2.80718,R,ugm-3,74.53940,R,ugm-3
11-01-2019,08:00,0.17280,R,ugm-3,2.43426,R,ugm-3,2.69921,R,ugm-3,72.14456,R,ugm-3
11-01-2019,09:00,0.27647,R,ugm-3,2.92310,R,ugm-3,3.34702,R,ugm-3,69.89939,R,ugm-3
11-01-2019,10:00,0.34559,R,ugm-3,4.32868,R,ugm-3,4.85858,R,ugm-3,66.80606,R,ugm-3
11-01-2019,11:00,0.48383,R,ugm-3,6.54601,R,ugm-3,7.28787,R,ugm-3,66.05767,R,ugm-3
11-01-2019,12:00,0.48383,R,ugm-3,6.81593,R,ugm-3,7.55779,R,ugm-3,67.75402,R,ugm-3
11-01-2019,13:00,0.55294,R,ugm-3,4.98246,R,ugm-3,5.83030,R,ugm-3,67.70412,R,ugm-3
11-01-2019,14:00,0.41471,R,ugm-3,4.54661,R,ugm-3,5.18248,R,ugm-3,66.10756,R,ugm-3
11-01-2019,15:00,0.31103,R,ugm-3,3.62589,R,ugm-3,4.10280,R,ugm-3,69.10111,R,ugm-3
11-01-2019,16:00,0.41471,R,ugm-3,2.76513,R,ugm-3,3.40100,R,ugm-3,74.28993,R,ugm-3
11-01-2019,17:00,0.20735,R,ugm-3,2.97510,R,ugm-3,3.29304,R,ugm-3,73.14241,R,ugm-3
11-01-2019,18:00,0.24191,R,ugm-3,2.32828,R,ugm-3,2.69921,R,ugm-3,69.84950,R,ugm-3
11-01-2019,19:00,0.31103,R,ugm-3,1.46652,R,ugm-3,1.94343,R,ugm-3,69.30068,R,ugm-3
11-01-2019,20:00,0.38015,R,ugm-3,1.90039,R,ugm-3,2.48327,R,ugm-3,69.69982,R,ugm-3
11-01-2019,21:00,0.44927,R,ugm-3,3.09003,R,ugm-3,3.77889,R,ugm-3,66.50670,R,ugm-3
11-01-2019,22:00,0.20735,R,ugm-3,4.05478,R,ugm-3,4.37272,R,ugm-3,62.46541,R,ugm-3
11-01-2019,23:00,0.20735,R,ugm-3,5.94423,R,ugm-3,6.26217,R,ugm-3,56.72777,R,ugm-3
11-01-2019,24:00,0.44927,R,ugm-3,5.30338,R,ugm-3,5.99225,R,ugm-3,54.38283,R,ugm-3
12-01-2019,01:00,0.78491,R,ugm-3,3.26760,R,ugm-3,4.47111,R,ugm-3,61.33451,R,ugm-3
12-01-2019,02:00,0.32320,R,ugm-3,1.88422,R,ugm-3,2.37979,R,ugm-3,64.86025,R,ugm-3
12-01-2019,03:00,0.38091,R,ugm-3,1.41713,R,ugm-3,2.00118,R,ugm-3,64.76047,R,ugm-3
12-01-2019,04:00,0.20777,R,ugm-3,1.19583,R,ugm-3,1.51441,R,ugm-3,63.96219,R,ugm-3
12-01-2019,05:00,0.48480,R,ugm-3,1.36601,R,ugm-3,2.10936,R,ugm-3,62.26584,R,ugm-3
12-01-2019,06:00,0.48480,R,ugm-3,1.63644,R,ugm-3,2.37979,R,ugm-3,61.76692,R,ugm-3
12-01-2019,07:00,0.41554,R,ugm-3,1.52629,R,ugm-3,2.16344,R,ugm-3,70.74757,R,ugm-3
12-01-2019,08:00,0.34628,R,ugm-3,1.47022,R,ugm-3,2.00118,R,ugm-3,75.93639,R,ugm-3
12-01-2019,09:00,0.45017,R,ugm-3,1.14868,R,ugm-3,1.83892,R,ugm-3,74.24004,R,ugm-3
12-01-2019,10:00,0.34628,R,ugm-3,1.30796,R,ugm-3,1.83892,R,ugm-3,74.63918,R,ugm-3
12-01-2019,11:00,0.34628,R,ugm-3,1.41614,R,ugm-3,1.94710,R,ugm-3,74.98843,R,ugm-3
12-01-2019,12:00,0.34628,R,ugm-3,1.41614,R,ugm-3,1.94710,R,ugm-3,75.18800,R,ugm-3
12-01-2019,13:00,0.27703,R,ugm-3,1.41416,R,ugm-3,1.83892,R,ugm-3,75.28778,R,ugm-3
12-01-2019,14:00,0.27703,R,ugm-3,1.30599,R,ugm-3,1.73075,R,ugm-3,74.58929,R,ugm-3
12-01-2019,15:00,0.41554,R,ugm-3,1.63446,R,ugm-3,2.27161,R,ugm-3,75.98628,R,ugm-3
12-01-2019,16:00,0.24240,R,ugm-3,1.68360,R,ugm-3,2.05527,R,ugm-3,73.89079,R,ugm-3
12-01-2019,17:00,0.27703,R,ugm-3,1.95502,R,ugm-3,2.37979,R,ugm-3,65.50885,R,ugm-3
12-01-2019,18:00,0.45017,R,ugm-3,2.01405,R,ugm-3,2.70430,R,ugm-3,63.71272,R,ugm-3
12-01-2019,19:00,0.34628,R,ugm-3,1.84883,R,ugm-3,2.37979,R,ugm-3,63.36348,R,ugm-3
12-01-2019,20:00,0.34628,R,ugm-3,1.74065,R,ugm-3,2.27161,R,ugm-3,72.54370,R,ugm-3
12-01-2019,21:00,0.45017,R,ugm-3,1.63545,R,ugm-3,2.32570,R,ugm-3,74.88864,R,ugm-3
12-01-2019,22:00,0.45017,R,ugm-3,1.47319,R,ugm-3,2.16344,R,ugm-3,77.08391,R,ugm-3
12-01-2019,23:00,0.41554,R,ugm-3,1.58038,R,ugm-3,2.21753,R,ugm-3,78.38112,R,ugm-3
12-01-2019,24:00,0.55405,R,ugm-3,1.74659,R,ugm-3,2.59613,R,ugm-3,79.17940,R,ugm-3